[[{"header":{"parameterUnit":"m.s-1","parameterCategory":1,"la1":30.2991,"la2":30.254,"lo1":-89.0895,"lo2":-89.0444,"dy":0.0017,"dx":0.0017,"nx":28,"ny":28,"refTime":"2025-08-17T03:00:00:Z","depth":0,"parameterNumber":2,"parameterNumberName":"U-component_of_WINDS"},"data":[0,0,0,0,0,0,0,0,0,0,0,0,0,0,0,0,0,0,0,0,0,0,0,0,0,0,0,0,0,0,0,0,0,0,0,0,0,0,0,0,0,0,0,0,0,0,0,0,0,0,0,0,0,0,0,0,0,0,0.2424,0.2425,0,0.2548,0.2549,0.2551,0.261,0.2609,0.2609,0.2609,0.2742,0.2745,0.2749,0,0,0,0,0,0,0,0,0,0,0,0,0,0.2239,0.2242,0.2424,0.2425,0.2427,0.2548,0.255,0.2551,0.261,0.2609,0.2609,0.2609,0.2741,0.2745,0.2749,0,0,0,0,0,0,0,0,0,0,0,0,0,0.2337,0.2243,0.2424,0.247,0.2476,0.2547,0.255,0.2552,0.261,0.2609,0.2609,0.2609,0.2739,0.2745,0.275,0.2786,0,0,0.2766,0.2769,0,0,0,0,0,0,0,0,0.2331,0.2344,0.2462,0.2467,0.2473,0.2563,0.2533,0.263,0.261,0.2559,0.2609,0.2609,0.2683,0.2693,0.2717,0.2792,0.2798,0.2767,0.277,0.2773,0.2774,0,0,0,0,0,0,0,0.2324,0.2339,0.2473,0.2464,0.2471,0.2486,0.25,0.2552,0.262,0.2563,0.2568,0.2581,0.2686,0.2711,0.272,0.28,0.2767,0.2772,0.2775,0.2777,0.2907,0.2908,0,0,0,0,0,0,0.2309,0.2332,0.2469,0.2477,0.24,0.2489,0.2505,0.2535,0.262,0.2633,0.2581,0.2584,0.2702,0.2714,0.2725,0.2772,0.2772,0.2778,0.2781,0.2907,0.2907,0.2908,0,0,0,0,0,0,0.2305,0.2321,0.2464,0.2406,0.2425,0.2492,0.2526,0.2537,0.2563,0.2633,0.2646,0.2595,0.2702,0.2717,0.2769,0.2777,0.278,0.2785,0.2907,0.2907,0.2908,0.2865,0,0,0,0,0,0,0.23,0.2319,0.2334,0.2406,0.2428,0.2506,0.2526,0.254,0.2571,0.2575,0.2649,0.2661,0.2704,0.2761,0.2775,0.2784,0.2789,0.2907,0.2907,0.2907,0.2866,0.2864,0.2862,0,0,0,0,0,0.2293,0.2319,0.2334,0.235,0.2447,0.2506,0.2519,0.2566,0.2571,0.2587,0.2631,0.2659,0.2773,0.2766,0.2782,0.2793,0.2906,0.2907,0.2907,0.2867,0.2864,0.2862,0,0,0,0,0,0,0.225,0.2329,0.2347,0.2397,0.2444,0.2516,0.2537,0.2562,0.261,0.2612,0.2668,0.2685,0.2731,0.2767,0.2757,0.2831,0.2842,0.2846,0.2806,0.2804,0.2802,0.2793,0.2794,0,0,0,0,0,0.2245,0.2285,0.2353,0.239,0.2412,0.247,0.2498,0.2528,0.258,0.2601,0.265,0.27,0.2747,0.2777,0.2825,0.287,0.2887,0.2886,0.2884,0.2882,0.2885,0.291,0.291,0.2909,0.2909,0.2909,0,0,0.2238,0.2286,0.2309,0.2383,0.2423,0.2463,0.2487,0.253,0.256,0.2608,0.266,0.2696,0.2756,0.2804,0.2828,0.2836,0.2888,0.2882,0.288,0.2885,0.291,0.291,0.291,0.291,0.291,0.291,0,0,0.2246,0.2286,0.232,0.2358,0.2417,0.2454,0.2462,0.2529,0.2554,0.2606,0.2641,0.2678,0.2759,0.2799,0.283,0.2845,0.2872,0.2859,0.2849,0.2873,0.2873,0.2873,0.2878,0.2879,0.2861,0.2861,0.2861,0,0.2231,0.2292,0.2336,0.2375,0.2406,0.2446,0.2481,0.2517,0.2589,0.2609,0.2616,0.2714,0.2757,0.2814,0.2817,0.2841,0.2852,0.2853,0.2869,0.2869,0.2871,0.2876,0.2878,0.2859,0.286,0.286,0.286,0,0.2269,0.231,0.2331,0.2395,0.2428,0.2465,0.2515,0.2543,0.2569,0.2605,0.2655,0.2707,0.2764,0.2779,0.2807,0.2839,0.2842,0.2857,0.2871,0.2868,0.2874,0.2877,0.2856,0.2857,0.2858,0.2858,0,0,0.2259,0.2342,0.2349,0.2377,0.2442,0.2476,0.2512,0.2565,0.2588,0.2634,0.2667,0.2731,0.2744,0.2779,0.2811,0.2831,0.2838,0.2844,0.2846,0.2842,0.2876,0.2864,0.2866,0.2855,0.2855,0.2856,0.2871,0,0.2276,0.2344,0.2382,0.2434,0.2472,0.2508,0.254,0.2583,0.2616,0.2653,0.2691,0.2734,0.2749,0.277,0.2791,0.2833,0.2846,0.2832,0.2887,0.2888,0.2873,0.287,0.2859,0.2871,0.2873,0.2874,0.2874,0,0.2307,0.2349,0.2403,0.246,0.2477,0.2505,0.2555,0.2589,0.2638,0.266,0.2695,0.2726,0.2766,0.2773,0.2829,0.2818,0.2842,0.2865,0.2867,0.2876,0.2883,0.288,0.2876,0.2878,0.2879,0.2878,0.2878,0,0.2294,0.2364,0.2405,0.2428,0.2495,0.2513,0.2542,0.259,0.2618,0.2661,0.2679,0.2727,0.2754,0.279,0.2832,0.2833,0.2883,0.2894,0.2904,0.2902,0.2916,0.2915,0.2917,0.2928,0.2928,0.2928,0.2927,0,0.2311,0.2343,0.2399,0.2425,0.2461,0.2503,0.2538,0.257,0.2611,0.2643,0.2677,0.2707,0.2759,0.2796,0.2828,0.2869,0.2881,0.29,0.2909,0.2899,0.2896,0.2917,0.2918,0.2928,0.2928,0.2928,0.2928,0,0.2305,0.2343,0.239,0.2447,0.2462,0.2486,0.2535,0.2561,0.2593,0.2633,0.2645,0.2696,0.274,0.2784,0.2844,0.2866,0.2906,0.2917,0.2889,0.2894,0.2902,0.29,0.2919,0.2924,0.2929,0.2929,0.2929,0,0.2314,0.2339,0.2396,0.2418,0.2445,0.2482,0.2509,0.2549,0.2577,0.263,0.2649,0.2694,0.2733,0.2801,0.2845,0.2889,0.2903,0.2906,0.291,0.2898,0.2904,0.2902,0.2905,0.2905,0.2905,0.2905,0.2905,0,0.2326,0.2342,0.2379,0.2421,0.2451,0.2487,0.2525,0.2541,0.2589,0.2617,0.266,0.269,0.2748,0.2792,0.2841,0.2872,0.2896,0.2902,0.2907,0.2898,0.288,0.289,0.2886,0.2903,0.2903,0.2903,0.2903,0.2903,0.2329,0.2351,0.2394,0.2432,0.2463,0.2496,0.2521,0.2554,0.259,0.2639,0.2661,0.2704,0.2748,0.2815,0.2845,0.2879,0.2886,0.2893,0.2895,0.2897,0.2894,0.2872,0.2888,0.2888,0.2889,0.2889,0.2889,0,0.2344,0.2371,0.2405,0.2454,0.2483,0.2499,0.2539,0.2564,0.26,0.2638,0.2673,0.2721,0.2763,0.2807,0.2851,0.287,0.2882,0.2881,0.2881,0.2887,0.2886,0.2877,0.287,0.287,0.287,0.287,0.287,0.287,0.2355,0.2393,0.2413,0.2466,0.2493,0.2534,0.2555,0.2585,0.2615,0.2665,0.2699,0.2726,0.2766,0.2812,0.2851,0.2863,0.2878,0.2873,0.2888,0.2886,0.2888,0.2889,0.2882,0.2876,0.2876,0.2887,0.2888,0.2888]},{"header":{"parameterUnit":"m.s-1","parameterCategory":1,"la1":30.2991,"la2":30.254,"lo1":-89.0895,"lo2":-89.0444,"dy":0.0017,"dx":0.0017,"nx":28,"ny":28,"refTime":"2025-08-17T03:00:00:Z","depth":0,"parameterNumber":3,"parameterNumberName":"V-component_of_WINDS"},"data":[0,0,0,0,0,0,0,0,0,0,0,0,0,0,0,0,0,0,0,0,0,0,0,0,0,0,0,0,0,0,0,0,0,0,0,0,0,0,0,0,0,0,0,0,0,0,0,0,0,0,0,0,0,0,0,0,0,0,-1.1608,-1.1609,0,-1.1774,-1.1776,-1.1778,-1.1828,-1.1827,-1.1826,-1.1825,-1.1997,-1.2003,-1.2008,0,0,0,0,0,0,0,0,0,0,0,0,0,-1.1334,-1.1338,-1.1608,-1.161,-1.1612,-1.1774,-1.1776,-1.1779,-1.1828,-1.1827,-1.1826,-1.1825,-1.1996,-1.2002,-1.2008,0,0,0,0,0,0,0,0,0,0,0,0,0,-1.1472,-1.134,-1.1607,-1.1656,-1.1662,-1.1773,-1.1776,-1.1779,-1.1828,-1.1827,-1.1825,-1.1824,-1.1993,-1.2001,-1.2009,-1.2085,0,0,-1.2034,-1.2038,0,0,0,0,0,0,0,0,-1.1464,-1.1482,-1.1647,-1.1653,-1.166,-1.1779,-1.1743,-1.1882,-1.1828,-1.1765,-1.1825,-1.1823,-1.1926,-1.1939,-1.1974,-1.2093,-1.2101,-1.2035,-1.204,-1.2043,-1.2045,0,0,0,0,0,0,0,-1.1454,-1.1475,-1.1674,-1.1649,-1.1657,-1.167,-1.1688,-1.1769,-1.1851,-1.177,-1.1774,-1.1793,-1.1929,-1.1966,-1.1978,-1.2103,-1.2035,-1.2042,-1.2047,-1.205,-1.2295,-1.2296,0,0,0,0,0,0,-1.1436,-1.1467,-1.1668,-1.1679,-1.1556,-1.1676,-1.1696,-1.1742,-1.185,-1.1865,-1.1794,-1.1795,-1.1952,-1.1968,-1.1984,-1.2081,-1.2043,-1.2051,-1.2055,-1.2293,-1.2295,-1.2297,0,0,0,0,0,0,-1.143,-1.1454,-1.1662,-1.1574,-1.1601,-1.1682,-1.1733,-1.1746,-1.1782,-1.1868,-1.1883,-1.1816,-1.1952,-1.1973,-1.206,-1.2088,-1.2054,-1.2062,-1.2291,-1.2294,-1.2296,-1.2275,0,0,0,0,0,0,-1.1422,-1.1451,-1.148,-1.1574,-1.1606,-1.1734,-1.1735,-1.175,-1.1796,-1.1799,-1.1893,-1.1907,-1.1953,-1.2047,-1.2068,-1.2098,-1.2068,-1.2289,-1.2292,-1.2295,-1.2273,-1.2276,-1.2279,0,0,0,0,0,-1.1412,-1.1468,-1.1482,-1.1506,-1.1644,-1.1735,-1.1754,-1.1804,-1.1798,-1.1829,-1.1883,-1.1904,-1.2081,-1.2056,-1.2079,-1.2113,-1.2287,-1.2291,-1.2295,-1.2272,-1.2276,-1.2279,0,0,0,0,0,0,-1.1376,-1.1481,-1.1497,-1.1585,-1.1651,-1.1743,-1.1784,-1.1806,-1.1875,-1.1875,-1.1935,-1.1956,-1.2039,-1.2085,-1.2055,-1.2192,-1.2185,-1.2193,-1.216,-1.2164,-1.2166,-1.2154,-1.2075,0,0,0,0,0,-1.1378,-1.1443,-1.1532,-1.1601,-1.1633,-1.1702,-1.1744,-1.1777,-1.1848,-1.1876,-1.1938,-1.2006,-1.2077,-1.2123,-1.2193,-1.228,-1.2302,-1.2314,-1.2317,-1.2318,-1.2326,-1.2376,-1.2383,-1.2309,-1.2309,-1.2309,0,0,-1.1384,-1.1449,-1.1487,-1.1595,-1.165,-1.1717,-1.1725,-1.1795,-1.1846,-1.1887,-1.1973,-1.202,-1.2101,-1.2188,-1.223,-1.2229,-1.2351,-1.2323,-1.2324,-1.233,-1.2381,-1.2387,-1.2394,-1.2311,-1.2311,-1.2311,0,0,-1.1428,-1.1484,-1.1548,-1.1602,-1.1685,-1.1731,-1.1746,-1.1836,-1.1868,-1.1955,-1.1988,-1.2049,-1.217,-1.2226,-1.227,-1.2336,-1.2358,-1.2357,-1.2371,-1.2419,-1.2425,-1.2431,-1.2455,-1.2463,-1.2363,-1.2363,-1.2363,0,-1.1425,-1.1526,-1.1578,-1.1647,-1.1694,-1.1733,-1.1799,-1.185,-1.1951,-1.1983,-1.198,-1.2133,-1.219,-1.2291,-1.2307,-1.2341,-1.2362,-1.2347,-1.242,-1.2426,-1.2432,-1.2456,-1.2465,-1.2363,-1.2363,-1.2363,-1.2363,0,-1.1519,-1.1588,-1.163,-1.1727,-1.1779,-1.1845,-1.1908,-1.1954,-1.1982,-1.2029,-1.2117,-1.2187,-1.2272,-1.2298,-1.2327,-1.2404,-1.2401,-1.2408,-1.2402,-1.2438,-1.2462,-1.2471,-1.2362,-1.2362,-1.2362,-1.2362,0,0,-1.1547,-1.167,-1.1685,-1.173,-1.1824,-1.1879,-1.1947,-1.203,-1.2069,-1.2138,-1.2198,-1.2299,-1.2306,-1.2356,-1.2392,-1.2434,-1.2483,-1.2436,-1.2439,-1.2444,-1.2574,-1.2569,-1.2579,-1.2497,-1.2499,-1.2501,-1.2567,0,-1.1604,-1.1728,-1.1776,-1.1878,-1.1943,-1.1982,-1.2042,-1.2106,-1.2151,-1.2214,-1.2263,-1.2335,-1.2338,-1.2369,-1.2412,-1.2467,-1.251,-1.2463,-1.2555,-1.2557,-1.2535,-1.2591,-1.2586,-1.2646,-1.2577,-1.2578,-1.258,0,-1.1688,-1.1757,-1.1864,-1.1951,-1.198,-1.2033,-1.2113,-1.2172,-1.2246,-1.2276,-1.2332,-1.2365,-1.2439,-1.2427,-1.2531,-1.2498,-1.2538,-1.2571,-1.2574,-1.2586,-1.2572,-1.2606,-1.2666,-1.2676,-1.2595,-1.2593,-1.2592,0,-1.1699,-1.1818,-1.1899,-1.1935,-1.2038,-1.2074,-1.2119,-1.2191,-1.2238,-1.2308,-1.2339,-1.2417,-1.246,-1.252,-1.2573,-1.2559,-1.2672,-1.2664,-1.27,-1.2699,-1.2724,-1.2722,-1.2793,-1.2746,-1.2746,-1.2746,-1.2746,0,-1.1759,-1.1824,-1.1905,-1.1955,-1.2029,-1.2083,-1.2155,-1.2202,-1.2267,-1.2327,-1.2364,-1.2419,-1.2485,-1.255,-1.2591,-1.2672,-1.269,-1.2718,-1.2728,-1.2715,-1.2712,-1.2744,-1.2742,-1.2749,-1.2748,-1.2748,-1.2747,0,-1.1785,-1.1841,-1.1932,-1.2021,-1.2045,-1.2096,-1.2172,-1.2222,-1.2268,-1.2344,-1.2365,-1.2437,-1.2515,-1.2573,-1.2674,-1.2702,-1.2788,-1.2798,-1.2763,-1.2769,-1.2802,-1.2799,-1.2898,-1.2914,-1.2854,-1.2855,-1.2855,0,-1.182,-1.1871,-1.1965,-1.2008,-1.2052,-1.212,-1.2168,-1.2224,-1.2272,-1.236,-1.24,-1.248,-1.2547,-1.2669,-1.2731,-1.2809,-1.2822,-1.2852,-1.2834,-1.282,-1.2825,-1.2822,-1.2828,-1.2854,-1.2855,-1.2855,-1.2855,0,-1.1877,-1.1903,-1.197,-1.2048,-1.2104,-1.2167,-1.2232,-1.2265,-1.2332,-1.2385,-1.2464,-1.2516,-1.2619,-1.2698,-1.2782,-1.2828,-1.2854,-1.286,-1.2873,-1.2861,-1.2839,-1.2853,-1.2771,-1.2858,-1.2858,-1.2858,-1.2857,-1.2857,-1.1911,-1.1958,-1.2032,-1.2106,-1.216,-1.2219,-1.2271,-1.2323,-1.239,-1.2478,-1.2506,-1.2589,-1.2662,-1.2777,-1.2824,-1.289,-1.2891,-1.2908,-1.2913,-1.2918,-1.2918,-1.2827,-1.2905,-1.2905,-1.2905,-1.2905,-1.2905,0,-1.1971,-1.2021,-1.2088,-1.2177,-1.2235,-1.2252,-1.2325,-1.2373,-1.2445,-1.251,-1.2576,-1.2667,-1.2745,-1.2813,-1.2893,-1.2933,-1.2947,-1.2952,-1.2951,-1.2962,-1.2912,-1.2893,-1.294,-1.294,-1.294,-1.294,-1.294,-1.294,-1.201,-1.2091,-1.2126,-1.2234,-1.2284,-1.2364,-1.2404,-1.246,-1.2513,-1.2613,-1.2677,-1.2721,-1.2788,-1.2874,-1.2946,-1.2964,-1.2993,-1.2996,-1.3017,-1.2969,-1.2965,-1.2961,-1.2944,-1.3001,-1.3001,-1.3062,-1.3062,-1.3063]}]]